Time,TemperatureF,DewpointF,PressureIn,WindDirection,WindDirectionDegrees,WindSpeedMPH,WindSpeedGustMPH,Humidity,HourlyPrecipIn,Conditions,Clouds,dailyrainin,SoftwareType,DateUTC
2013-01-20 00:00:00,39.0,35.0,-100.00,East,90,3.0,-999.0,84,0.00,,,-99.99,,2013-01-20 08:00:00,
2013-01-20 00:22:00,39.0,35.0,-100.00,East,90,3.0,-999.0,84,0.00,,,-99.99,,2013-01-20 08:22:00,
2013-01-20 00:32:00,39.0,35.0,-100.00,East,90,3.0,-999.0,84,0.00,,,-99.99,,2013-01-20 08:32:00,
2013-01-20 00:42:00,39.0,35.0,-100.00,East,90,3.0,-999.0,84,0.00,,,-99.99,,2013-01-20 08:42:00,
2013-01-20 00:52:00,39.0,35.0,-100.00,East,90,3.0,-999.0,84,0.00,,,-99.99,,2013-01-20 08:52:00,
2013-01-20 01:00:00,37.0,33.0,-100.00,East,91,2.0,-999.0,85,0.00,,,-99.99,,2013-01-20 09:00:00,
2013-01-20 01:22:00,37.0,33.0,-100.00,East,91,2.0,-999.0,85,0.00,,,-99.99,,2013-01-20 09:22:00,
2013-01-20 01:33:00,37.0,33.0,-100.00,East,91,2.0,-999.0,85,0.00,,,-99.99,,2013-01-20 09:33:00,
2013-01-20 01:42:00,37.0,33.0,-100.00,East,91,2.0,-999.0,85,0.00,,,-99.99,,2013-01-20 09:42:00,
2013-01-20 01:52:00,37.0,33.0,-100.00,East,91,2.0,-999.0,85,0.00,,,-99.99,,2013-01-20 09:52:00,
2013-01-20 02:00:00,36.0,32.0,-100.00,ESE,112,3.0,-999.0,82,0.00,,,-99.99,,2013-01-20 10:00:00,
2013-01-20 02:23:00,36.0,32.0,-100.00,ESE,112,3.0,-999.0,82,0.00,,,-99.99,,2013-01-20 10:23:00,
2013-01-20 02:32:00,36.0,32.0,-100.00,ESE,112,3.0,-999.0,82,0.00,,,-99.99,,2013-01-20 10:32:00,
2013-01-20 02:42:00,36.0,32.0,-100.00,ESE,112,3.0,-999.0,82,0.00,,,-99.99,,2013-01-20 10:42:00,
2013-01-20 02:52:00,36.0,32.0,-100.00,ESE,112,3.0,-999.0,82,0.00,,,-99.99,,2013-01-20 10:52:00,
2013-01-20 03:00:00,35.0,31.0,-100.00,East,100,2.0,-999.0,85,0.00,,,-99.99,,2013-01-20 11:00:00,
2013-01-20 03:22:00,35.0,31.0,-100.00,East,100,2.0,-999.0,85,0.00,,,-99.99,,2013-01-20 11:22:00,
2013-01-20 03:33:00,35.0,31.0,-100.00,East,100,2.0,-999.0,85,0.00,,,-99.99,,2013-01-20 11:33:00,
2013-01-20 03:43:00,35.0,31.0,-100.00,East,100,2.0,-999.0,85,0.00,,,-99.99,,2013-01-20 11:43:00,
2013-01-20 03:53:00,35.0,31.0,-100.00,East,100,2.0,-999.0,85,0.00,,,-99.99,,2013-01-20 11:53:00,
2013-01-20 04:00:00,33.0,30.0,-100.00,ESE,106,2.0,-999.0,85,0.00,,,-99.99,,2013-01-20 12:00:00,
2013-01-20 04:23:00,33.0,30.0,-100.00,ESE,106,2.0,-999.0,85,0.00,,,-99.99,,2013-01-20 12:23:00,
2013-01-20 04:33:00,33.0,30.0,-100.00,ESE,106,2.0,-999.0,85,0.00,,,-99.99,,2013-01-20 12:33:00,
2013-01-20 04:43:00,33.0,30.0,-100.00,ESE,106,2.0,-999.0,85,0.00,,,-99.99,,2013-01-20 12:43:00,
2013-01-20 04:53:00,33.0,30.0,-100.00,ESE,106,2.0,-999.0,85,0.00,,,-99.99,,2013-01-20 12:53:00,
2013-01-20 05:00:00,32.0,28.0,-100.00,SSE,148,2.0,-999.0,84,0.00,,,-99.99,,2013-01-20 13:00:00,
2013-01-20 05:23:00,32.0,28.0,-100.00,SSE,148,2.0,-999.0,84,0.00,,,-99.99,,2013-01-20 13:23:00,
2013-01-20 05:33:00,32.0,28.0,-100.00,SSE,148,2.0,-999.0,84,0.00,,,-99.99,,2013-01-20 13:33:00,
2013-01-20 05:43:00,32.0,28.0,-100.00,SSE,148,2.0,-999.0,84,0.00,,,-99.99,,2013-01-20 13:43:00,
2013-01-20 05:52:00,32.0,28.0,-100.00,SSE,148,2.0,-999.0,84,0.00,,,-99.99,,2013-01-20 13:52:00,
2013-01-20 06:00:00,33.0,30.0,-100.00,SE,125,2.0,-999.0,87,0.00,,,-99.99,,2013-01-20 14:00:00,
2013-01-20 06:23:00,33.0,30.0,-100.00,SE,125,2.0,-999.0,87,0.00,,,-99.99,,2013-01-20 14:23:00,
2013-01-20 06:33:00,33.0,30.0,-100.00,SE,125,2.0,-999.0,87,0.00,,,-99.99,,2013-01-20 14:33:00,
2013-01-20 06:43:00,33.0,30.0,-100.00,SE,125,2.0,-999.0,87,0.00,,,-99.99,,2013-01-20 14:43:00,
2013-01-20 06:53:00,33.0,30.0,-100.00,SE,125,2.0,-999.0,87,0.00,,,-99.99,,2013-01-20 14:53:00,
2013-01-20 07:00:00,33.0,29.0,-100.00,SE,127,2.0,-999.0,86,0.00,,,-99.99,,2013-01-20 15:00:00,
2013-01-20 07:23:00,33.0,29.0,-100.00,SE,127,2.0,-999.0,86,0.00,,,-99.99,,2013-01-20 15:23:00,
2013-01-20 07:33:00,33.0,29.0,-100.00,SE,127,2.0,-999.0,86,0.00,,,-99.99,,2013-01-20 15:33:00,
2013-01-20 07:43:00,33.0,29.0,-100.00,SE,127,2.0,-999.0,86,0.00,,,-99.99,,2013-01-20 15:43:00,
2013-01-20 07:53:00,33.0,29.0,-100.00,SE,127,2.0,-999.0,86,0.00,,,-99.99,,2013-01-20 15:53:00,
2013-01-20 08:00:00,33.0,29.0,-100.00,South,170,1.0,-999.0,84,0.00,,,-99.99,,2013-01-20 16:00:00,
2013-01-20 08:23:00,33.0,29.0,-100.00,South,170,1.0,-999.0,84,0.00,,,-99.99,,2013-01-20 16:23:00,
2013-01-20 08:33:00,33.0,29.0,-100.00,South,170,1.0,-999.0,84,0.00,,,-99.99,,2013-01-20 16:33:00,
2013-01-20 08:43:00,33.0,29.0,-100.00,South,170,1.0,-999.0,84,0.00,,,-99.99,,2013-01-20 16:43:00,
2013-01-20 08:53:00,33.0,29.0,-100.00,South,170,1.0,-999.0,84,0.00,,,-99.99,,2013-01-20 16:53:00,
2013-01-20 09:00:00,38.0,33.0,-100.00,ESE,105,2.0,-999.0,80,0.00,,,-99.99,,2013-01-20 17:00:00,
2013-01-20 09:23:00,38.0,33.0,-100.00,ESE,105,2.0,-999.0,80,0.00,,,-99.99,,2013-01-20 17:23:00,
2013-01-20 09:33:00,38.0,33.0,-100.00,ESE,105,2.0,-999.0,80,0.00,,,-99.99,,2013-01-20 17:33:00,
2013-01-20 09:43:00,38.0,33.0,-100.00,ESE,105,2.0,-999.0,80,0.00,,,-99.99,,2013-01-20 17:43:00,
2013-01-20 09:53:00,38.0,33.0,-100.00,ESE,105,2.0,-999.0,80,0.00,,,-99.99,,2013-01-20 17:53:00,
2013-01-20 10:00:00,49.0,35.0,-100.00,SW,214,3.0,-999.0,58,0.00,,,-99.99,,2013-01-20 18:00:00,
2013-01-20 10:24:00,49.0,35.0,-100.00,SW,214,3.0,-999.0,58,0.00,,,-99.99,,2013-01-20 18:24:00,
2013-01-20 10:33:00,49.0,35.0,-100.00,SW,214,3.0,-999.0,58,0.00,,,-99.99,,2013-01-20 18:33:00,
2013-01-20 10:43:00,49.0,35.0,-100.00,SW,214,3.0,-999.0,58,0.00,,,-99.99,,2013-01-20 18:43:00,
2013-01-20 10:53:00,49.0,35.0,-100.00,SW,214,3.0,-999.0,58,0.00,,,-99.99,,2013-01-20 18:53:00,
2013-01-20 11:00:00,54.0,38.0,-100.00,SSW,209,0.0,-999.0,54,0.00,,,-99.99,,2013-01-20 19:00:00,
2013-01-20 11:23:00,54.0,38.0,-100.00,SSW,209,0.0,-999.0,54,0.00,,,-99.99,,2013-01-20 19:23:00,
2013-01-20 11:33:00,54.0,38.0,-100.00,SSW,209,0.0,-999.0,54,0.00,,,-99.99,,2013-01-20 19:33:00,
2013-01-20 11:43:00,54.0,38.0,-100.00,SSW,209,0.0,-999.0,54,0.00,,,-99.99,,2013-01-20 19:43:00,
2013-01-20 11:52:00,54.0,38.0,-100.00,SSW,209,0.0,-999.0,54,0.00,,,-99.99,,2013-01-20 19:52:00,
2013-01-20 12:00:00,56.0,40.0,-100.00,WNW,283,6.0,-999.0,54,0.00,,,-99.99,,2013-01-20 20:00:00,
2013-01-20 12:23:00,56.0,40.0,-100.00,WNW,283,6.0,-999.0,54,0.00,,,-99.99,,2013-01-20 20:23:00,
2013-01-20 12:33:00,56.0,40.0,-100.00,WNW,283,6.0,-999.0,54,0.00,,,-99.99,,2013-01-20 20:33:00,
2013-01-20 12:42:00,56.0,40.0,-100.00,WNW,283,6.0,-999.0,54,0.00,,,-99.99,,2013-01-20 20:42:00,
2013-01-20 12:53:00,56.0,40.0,-100.00,WNW,283,6.0,-999.0,54,0.00,,,-99.99,,2013-01-20 20:53:00,
2013-01-20 13:00:00,58.0,40.0,-100.00,SSE,167,21.0,-999.0,50,0.00,,,-99.99,,2013-01-20 21:00:00,
2013-01-20 13:23:00,58.0,40.0,-100.00,SSE,167,21.0,-999.0,50,0.00,,,-99.99,,2013-01-20 21:23:00,
2013-01-20 13:33:00,58.0,40.0,-100.00,SSE,167,21.0,-999.0,50,0.00,,,-99.99,,2013-01-20 21:33:00,
2013-01-20 13:43:00,58.0,40.0,-100.00,SSE,167,21.0,-999.0,50,0.00,,,-99.99,,2013-01-20 21:43:00,
2013-01-20 13:53:00,58.0,40.0,-100.00,SSE,167,21.0,-999.0,50,0.00,,,-99.99,,2013-01-20 21:53:00,
2013-01-20 14:00:00,61.0,39.0,-100.00,NNW,347,5.0,-999.0,44,0.00,,,-99.99,,2013-01-20 22:00:00,
2013-01-20 14:23:00,61.0,39.0,-100.00,NNW,347,5.0,-999.0,44,0.00,,,-99.99,,2013-01-20 22:23:00,
2013-01-20 14:33:00,61.0,39.0,-100.00,NNW,347,5.0,-999.0,44,0.00,,,-99.99,,2013-01-20 22:33:00,
2013-01-20 14:43:00,61.0,39.0,-100.00,NNW,347,5.0,-999.0,44,0.00,,,-99.99,,2013-01-20 22:43:00,
2013-01-20 14:53:00,61.0,39.0,-100.00,NNW,347,5.0,-999.0,44,0.00,,,-99.99,,2013-01-20 22:53:00,
2013-01-20 15:00:00,62.0,38.0,-100.00,West,273,3.0,-999.0,40,0.00,,,-99.99,,2013-01-20 23:00:00,
2013-01-20 15:23:00,62.0,38.0,-100.00,West,273,3.0,-999.0,40,0.00,,,-99.99,,2013-01-20 23:23:00,
2013-01-20 15:33:00,62.0,38.0,-100.00,West,273,3.0,-999.0,40,0.00,,,-99.99,,2013-01-20 23:33:00,
2013-01-20 15:43:00,62.0,38.0,-100.00,West,273,3.0,-999.0,40,0.00,,,-99.99,,2013-01-20 23:43:00,
2013-01-20 15:53:00,62.0,38.0,-100.00,West,273,3.0,-999.0,40,0.00,,,-99.99,,2013-01-20 23:53:00,
2013-01-20 16:00:00,62.0,39.0,-100.00,WNW,298,8.0,-999.0,43,0.00,,,-99.99,,2013-01-21 00:00:00,
2013-01-20 16:23:00,62.0,39.0,-100.00,WNW,298,8.0,-999.0,43,0.00,,,-99.99,,2013-01-21 00:23:00,
2013-01-20 16:33:00,62.0,39.0,-100.00,WNW,298,8.0,-999.0,43,0.00,,,-99.99,,2013-01-21 00:33:00,
2013-01-20 16:43:00,62.0,39.0,-100.00,WNW,298,8.0,-999.0,43,0.00,,,-99.99,,2013-01-21 00:43:00,
2013-01-20 16:53:00,62.0,39.0,-100.00,WNW,298,8.0,-999.0,43,0.00,,,-99.99,,2013-01-21 00:53:00,
2013-01-20 17:00:00,60.0,40.0,-100.00,West,271,4.0,-999.0,47,0.00,,,-99.99,,2013-01-21 01:00:00,
2013-01-20 17:23:00,60.0,40.0,-100.00,West,271,4.0,-999.0,47,0.00,,,-99.99,,2013-01-21 01:23:00,
2013-01-20 17:33:00,60.0,40.0,-100.00,West,271,4.0,-999.0,47,0.00,,,-99.99,,2013-01-21 01:33:00,
2013-01-20 17:43:00,60.0,40.0,-100.00,West,271,4.0,-999.0,47,0.00,,,-99.99,,2013-01-21 01:43:00,
2013-01-20 17:53:00,60.0,40.0,-100.00,West,271,4.0,-999.0,47,0.00,,,-99.99,,2013-01-21 01:53:00,
2013-01-20 18:00:00,55.0,42.0,-100.00,SW,220,2.0,-999.0,60,0.00,,,-99.99,,2013-01-21 02:00:00,
2013-01-20 18:23:00,55.0,42.0,-100.00,SW,220,2.0,-999.0,60,0.00,,,-99.99,,2013-01-21 02:23:00,
2013-01-20 18:33:00,55.0,42.0,-100.00,SW,220,2.0,-999.0,60,0.00,,,-99.99,,2013-01-21 02:33:00,
2013-01-20 18:43:00,55.0,42.0,-100.00,SW,220,2.0,-999.0,60,0.00,,,-99.99,,2013-01-21 02:43:00,
2013-01-20 18:53:00,55.0,42.0,-100.00,SW,220,2.0,-999.0,60,0.00,,,-99.99,,2013-01-21 02:53:00,
2013-01-20 19:00:00,50.0,41.0,-100.00,ESE,111,1.0,-999.0,71,0.00,,,-99.99,,2013-01-21 03:00:00,
2013-01-20 19:23:00,50.0,41.0,-100.00,ESE,111,1.0,-999.0,71,0.00,,,-99.99,,2013-01-21 03:23:00,
2013-01-20 19:33:00,50.0,41.0,-100.00,ESE,111,1.0,-999.0,71,0.00,,,-99.99,,2013-01-21 03:33:00,
2013-01-20 19:43:00,50.0,41.0,-100.00,ESE,111,1.0,-999.0,71,0.00,,,-99.99,,2013-01-21 03:43:00,
2013-01-20 19:53:00,50.0,41.0,-100.00,ESE,111,1.0,-999.0,71,0.00,,,-99.99,,2013-01-21 03:53:00,
2013-01-20 20:00:00,45.0,39.0,-100.00,ESE,121,4.0,-999.0,79,0.00,,,-99.99,,2013-01-21 04:00:00,
2013-01-20 20:23:00,45.0,39.0,-100.00,ESE,121,4.0,-999.0,79,0.00,,,-99.99,,2013-01-21 04:23:00,
2013-01-20 20:33:00,45.0,39.0,-100.00,ESE,121,4.0,-999.0,79,0.00,,,-99.99,,2013-01-21 04:33:00,
2013-01-20 20:43:00,45.0,39.0,-100.00,ESE,121,4.0,-999.0,79,0.00,,,-99.99,,2013-01-21 04:43:00,
2013-01-20 20:53:00,45.0,39.0,-100.00,ESE,121,4.0,-999.0,79,0.00,,,-99.99,,2013-01-21 04:53:00,
2013-01-20 21:00:00,43.0,38.0,-100.00,East,86,4.0,-999.0,82,0.00,,,-99.99,,2013-01-21 05:00:00,
2013-01-20 21:22:00,43.0,38.0,-100.00,East,86,4.0,-999.0,82,0.00,,,-99.99,,2013-01-21 05:22:00,
2013-01-20 21:34:00,43.0,38.0,-100.00,East,86,4.0,-999.0,82,0.00,,,-99.99,,2013-01-21 05:34:00,
2013-01-20 21:42:00,43.0,38.0,-100.00,East,86,4.0,-999.0,82,0.00,,,-99.99,,2013-01-21 05:42:00,
2013-01-20 21:53:00,43.0,38.0,-100.00,East,86,4.0,-999.0,82,0.00,,,-99.99,,2013-01-21 05:53:00,
2013-01-20 22:00:00,42.0,37.0,-100.00,East,88,4.0,-999.0,84,0.00,,,-99.99,,2013-01-21 06:00:00,
2013-01-20 22:23:00,42.0,37.0,-100.00,East,88,4.0,-999.0,84,0.00,,,-99.99,,2013-01-21 06:23:00,
2013-01-20 22:33:00,42.0,37.0,-100.00,East,88,4.0,-999.0,84,0.00,,,-99.99,,2013-01-21 06:33:00,
2013-01-20 22:43:00,42.0,37.0,-100.00,East,88,4.0,-999.0,84,0.00,,,-99.99,,2013-01-21 06:43:00,
2013-01-20 22:53:00,42.0,37.0,-100.00,East,88,4.0,-999.0,84,0.00,,,-99.99,,2013-01-21 06:53:00,
2013-01-20 23:00:00,40.0,35.0,-100.00,ESE,114,4.0,-999.0,85,0.00,,,-99.99,,2013-01-21 07:00:00,
2013-01-20 23:23:00,40.0,35.0,-100.00,ESE,114,4.0,-999.0,85,0.00,,,-99.99,,2013-01-21 07:23:00,
2013-01-20 23:33:00,40.0,35.0,-100.00,ESE,114,4.0,-999.0,85,0.00,,,-99.99,,2013-01-21 07:33:00,
2013-01-20 23:42:00,40.0,35.0,-100.00,ESE,114,4.0,-999.0,85,0.00,,,-99.99,,2013-01-21 07:42:00,
2013-01-20 23:53:00,40.0,35.0,-100.00,ESE,114,4.0,-999.0,85,0.00,,,-99.99,,2013-01-21 07:53:00,